When you browse on this site, cookies collect data to enhance your experience and personalize the content and advertising you see.
Visit our Privacy Policy to learn more. By continuing to use the site, you agree to this use of cookies and data.
  • In Romania
  • List of Countries
  • For 7 days
  • Water Temperature
  • Weather Map
  • Weather Widgets
  • user-avatar
    Login

    Hourly Weather Nam Dinh

    Today, 16 December, Monday

    Time Temperature Precipitation Wind Pressure Humidity
    00:00 +23°C° 0 mm 2 mps 762 mmHg 93%
    01:00 +21°C° 0 mm 2 mps 762 mmHg 93%
    02:00 +22°C° 0 mm 1 mps 761 mmHg 93%
    03:00 +22°C° 0 mm 1 mps 761 mmHg 93%
    04:00 +22°C° 0 mm 1 mps 761 mmHg 93%
    05:00 +22°C° 0 mm 1 mps 761 mmHg 93%
    06:00 +20°C° 0 mm 0 mps 761 mmHg 92%
    07:00 +20°C° 0 mm 0 mps 762 mmHg 95%
    08:00 +24°C° 0 mm 1 mps 762 mmHg 86%
    09:00 +26°C° 0 mm 1 mps 762 mmHg 77%
    10:00 +27°C° 0 mm 2 mps 763 mmHg 69%
    11:00 +28°C° 0 mm 2 mps 762 mmHg 65%
    12:00 +29°C° 0 mm 2 mps 761 mmHg 62%
    13:00 +30°C° 0 mm 3 mps 760 mmHg 58%
    14:00 +29°C° 0 mm 3 mps 760 mmHg 59%
    15:00 +29°C° 0 mm 3 mps 760 mmHg 59%
    16:00 +29°C° 0 mm 3 mps 759 mmHg 60%
    17:00 +28°C° 0 mm 3 mps 760 mmHg 66%
    18:00 +27°C° 0 mm 3 mps 760 mmHg 72%
    19:00 +25°C° 0 mm 3 mps 760 mmHg 78%
    20:00 +25°C° 0 mm 3 mps 761 mmHg 80%
    21:00 +25°C° 0 mm 3 mps 761 mmHg 82%
    22:00 +24°C° 0 mm 2 mps 761 mmHg 84%
    23:00 +24°C° 0 mm 2 mps 761 mmHg 86%

    Tomorrow, 17 December, Tuesday

    Time Temperature Precipitation Wind Pressure Humidity
    00:00 +24°C° 0 mm 2 mps 761 mmHg 88%
    01:00 +23°C° 0 mm 2 mps 761 mmHg 89%
    02:00 +24°C° 0 mm 1 mps 761 mmHg 89%
    03:00 +24°C° 0 mm 1 mps 761 mmHg 88%
    04:00 +22°C° 0 mm 0 mps 760 mmHg 88%
    05:00 +22°C° 0 mm 0 mps 761 mmHg 87%
    06:00 +24°C° 0 mm 1 mps 761 mmHg 87%
    07:00 +24°C° 0 mm 1 mps 761 mmHg 87%
    08:00 +25°C° 0 mm 1 mps 762 mmHg 84%
    09:00 +26°C° 0 mm 1 mps 762 mmHg 81%
    10:00 +26°C° 0 mm 2 mps 762 mmHg 78%
    11:00 +27°C° 0.1 mm 2 mps 762 mmHg 75%
    12:00 +28°C° 0.1 mm 3 mps 761 mmHg 71%
    13:00 +28°C° 0.1 mm 3 mps 760 mmHg 68%
    14:00 +28°C° 0 mm 3 mps 760 mmHg 68%
    15:00 +28°C° 0 mm 4 mps 759 mmHg 68%
    16:00 +28°C° 0 mm 4 mps 759 mmHg 69%
    17:00 +27°C° 0 mm 4 mps 760 mmHg 74%
    18:00 +26°C° 0 mm 3 mps 760 mmHg 79%
    19:00 +25°C° 0 mm 3 mps 760 mmHg 84%
    20:00 +25°C° 0 mm 3 mps 761 mmHg 86%
    21:00 +25°C° 0 mm 2 mps 761 mmHg 87%
    22:00 +24°C° 0 mm 2 mps 761 mmHg 89%
    23:00 +24°C° 0 mm 2 mps 761 mmHg 91%

    Day after tomorrow, 18 December, Wednesday

    Time Temperature Precipitation Wind Pressure Humidity
    00:00 +24°C° 0 mm 2 mps 761 mmHg 92%
    01:00 +24°C° 0 mm 2 mps 761 mmHg 94%
    02:00 +24°C° 0.1 mm 2 mps 760 mmHg 93%
    03:00 +24°C° 0.1 mm 1 mps 760 mmHg 92%
    04:00 +24°C° 0.1 mm 1 mps 760 mmHg 92%
    05:00 +24°C° 0.1 mm 1 mps 760 mmHg 90%
    06:00 +24°C° 0.1 mm 1 mps 761 mmHg 88%
    07:00 +25°C° 0.1 mm 1 mps 761 mmHg 86%
    08:00 +25°C° 0.1 mm 2 mps 761 mmHg 81%
    09:00 +26°C° 0.1 mm 2 mps 762 mmHg 76%
    10:00 +27°C° 0.1 mm 2 mps 762 mmHg 72%
    11:00 +28°C° 0.1 mm 3 mps 761 mmHg 67%
    12:00 +29°C° 0.1 mm 3 mps 761 mmHg 62%
    13:00 +30°C° 0.1 mm 3 mps 760 mmHg 56%
    14:00 +30°C° 0 mm 4 mps 760 mmHg 58%
    15:00 +29°C° 0 mm 4 mps 760 mmHg 59%
    16:00 +29°C° 0 mm 4 mps 759 mmHg 60%
    17:00 +28°C° 0 mm 4 mps 760 mmHg 65%
    18:00 +27°C° 0 mm 3 mps 760 mmHg 70%
    19:00 +26°C° 0 mm 3 mps 761 mmHg 75%
    20:00 +26°C° 0 mm 3 mps 761 mmHg 76%
    21:00 +26°C° 0 mm 3 mps 761 mmHg 77%
    22:00 +25°C° 0 mm 2 mps 762 mmHg 78%
    23:00 +25°C° 0 mm 3 mps 761 mmHg 76%

    19 December, Thursday

    Time Temperature Precipitation Wind Pressure Humidity
    00:00 +26°C° 0 mm 3 mps 761 mmHg 75%
    01:00 +26°C° 0 mm 3 mps 761 mmHg 74%
    02:00 +26°C° 0 mm 3 mps 761 mmHg 74%
    03:00 +26°C° 0 mm 3 mps 761 mmHg 74%
    04:00 +25°C° 0 mm 3 mps 760 mmHg 74%
    05:00 +25°C° 0 mm 3 mps 761 mmHg 74%
    06:00 +25°C° 0 mm 3 mps 761 mmHg 75%
    07:00 +25°C° 0 mm 3 mps 762 mmHg 76%
    08:00 +26°C° 0 mm 3 mps 762 mmHg 73%
    09:00 +26°C° 0 mm 4 mps 762 mmHg 71%
    10:00 +27°C° 0 mm 4 mps 762 mmHg 68%
    11:00 +27°C° 0 mm 4 mps 762 mmHg 67%
    12:00 +27°C° 0 mm 4 mps 761 mmHg 67%
    13:00 +27°C° 0 mm 4 mps 761 mmHg 66%
    14:00 +27°C° 0 mm 5 mps 760 mmHg 67%
    15:00 +27°C° 0 mm 5 mps 760 mmHg 69%
    16:00 +27°C° 0 mm 5 mps 760 mmHg 71%
    17:00 +26°C° 0 mm 5 mps 760 mmHg 76%
    18:00 +25°C° 0 mm 4 mps 760 mmHg 81%
    19:00 +23°C° 0 mm 4 mps 761 mmHg 86%
    20:00 +23°C° 0 mm 4 mps 761 mmHg 87%
    21:00 +23°C° 0 mm 4 mps 761 mmHg 87%
    22:00 +24°C° 0 mm 3 mps 762 mmHg 88%
    23:00 +24°C° 0.3 mm 3 mps 761 mmHg 88%

    20 December, Friday

    Time Temperature Precipitation Wind Pressure Humidity
    00:00 +24°C° 0.3 mm 3 mps 761 mmHg 88%
    01:00 +24°C° 0.3 mm 3 mps 761 mmHg 87%
    02:00 +24°C° 0.5 mm 3 mps 761 mmHg 88%
    03:00 +22°C° 0.5 mm 3 mps 760 mmHg 89%
    04:00 +22°C° 0.5 mm 3 mps 760 mmHg 90%
    05:00 +22°C° 0.3 mm 3 mps 760 mmHg 90%
    06:00 +22°C° 0.3 mm 3 mps 761 mmHg 90%
    07:00 +21°C° 0.3 mm 4 mps 761 mmHg 90%
    08:00 +23°C° 0 mm 4 mps 761 mmHg 84%
    09:00 +25°C° 0 mm 4 mps 761 mmHg 77%
    10:00 +27°C° 0 mm 4 mps 761 mmHg 70%
    11:00 +27°C° 0.1 mm 3 mps 761 mmHg 67%
    12:00 +28°C° 0.1 mm 3 mps 760 mmHg 63%
    13:00 +29°C° 0.1 mm 3 mps 759 mmHg 60%
    14:00 +29°C° 0 mm 4 mps 759 mmHg 62%
    15:00 +28°C° 0 mm 4 mps 759 mmHg 63%
    16:00 +28°C° 0 mm 5 mps 758 mmHg 65%
    17:00 +27°C° 0 mm 5 mps 759 mmHg 71%
    18:00 +26°C° 0 mm 4 mps 759 mmHg 76%
    19:00 +25°C° 0 mm 4 mps 759 mmHg 81%
    20:00 +25°C° 0 mm 4 mps 759 mmHg 83%
    21:00 +23°C° 0 mm 4 mps 760 mmHg 84%
    22:00 +24°C° 0 mm 3 mps 760 mmHg 86%
    23:00 +24°C° 0.1 mm 3 mps 760 mmHg 87%

    21 December, Saturday

    Time Temperature Precipitation Wind Pressure Humidity
    00:00 +24°C° 0.1 mm 3 mps 759 mmHg 88%
    01:00 +24°C° 0.1 mm 3 mps 759 mmHg 89%
    02:00 +24°C° 0.1 mm 3 mps 759 mmHg 89%
    03:00 +24°C° 0.1 mm 3 mps 759 mmHg 89%
    04:00 +24°C° 0.1 mm 3 mps 759 mmHg 90%
    05:00 +24°C° 0 mm 3 mps 759 mmHg 91%
    06:00 +24°C° 0 mm 2 mps 759 mmHg 91%
    07:00 +24°C° 0 mm 2 mps 759 mmHg 92%
    08:00 +25°C° 0.1 mm 4 mps 760 mmHg 84%
    09:00 +27°C° 0.1 mm 5 mps 760 mmHg 76%
    10:00 +28°C° 0.1 mm 6 mps 760 mmHg 68%
    11:00 +29°C° 0 mm 6 mps 759 mmHg 66%
    12:00 +29°C° 0 mm 6 mps 758 mmHg 64%
    13:00 +29°C° 0 mm 6 mps 757 mmHg 61%
    14:00 +29°C° 0 mm 6 mps 757 mmHg 63%
    15:00 +28°C° 0 mm 6 mps 757 mmHg 66%
    16:00 +28°C° 0 mm 6 mps 756 mmHg 68%
    17:00 +27°C° 0 mm 5 mps 757 mmHg 73%
    18:00 +26°C° 0 mm 5 mps 757 mmHg 79%
    19:00 +25°C° 0 mm 4 mps 758 mmHg 84%
    20:00 +25°C° 0 mm 4 mps 758 mmHg 86%
    21:00 +25°C° 0 mm 3 mps 758 mmHg 87%
    22:00 +25°C° 0 mm 2 mps 759 mmHg 89%
    23:00 +24°C° 0 mm 2 mps 758 mmHg 91%
    Show more